STARLINK-36157

Last updated on Fri Dec 19 2025 00:02:08 GMT+0000 (Coordinated Universal Time)

1 66933U 25286J 25352.58336806 -.01304136 00000+0 -69100-2 0 9993 2 66933 53.1561 21.0435 0000968 69.8954 50.4882 15.82648960 2939
UTC large
Height (km)
Speed (km/s)
/
Latitude / Longitude
Inclination (degrees)
Orbital Period (minutes)
Azimuth
Elevation
Range (km)
Doppler Factor

Next 0 passes for location: London (51.5072 / 0.1276)

Sorry there are no passes over London.